• In Deutschland
  • Länderverzeichnis
  • Für 7 Tage
  • Wassertemperatur
  • Satellitenkarten
  • Wetterkarte
  • Widgets
  • user-avatar
    Anmelden

    Stündliche Wetter Bedburg

    Heute, 17 Januar, Mittwoch

    Zeit Temperatur Niederschläge Wind Luftdruck Luftfeuchtigkeit
    00:00 +1°C° 0 mm 4 m/S 738 mmHg 84%
    01:00 +1°C° 0,4 mm 5 m/S 738 mmHg 83%
    02:00 +1°C° 0,4 mm 5 m/S 738 mmHg 81%
    03:00 +1°C° 0,4 mm 6 m/S 738 mmHg 79%
    04:00 +1°C° 0,4 mm 6 m/S 739 mmHg 78%
    05:00 -1°C° 0,4 mm 6 m/S 739 mmHg 77%
    06:00 0°C° 0 mm 5 m/S 741 mmHg 80%
    07:00 -1°C° 0,1 mm 6 m/S 741 mmHg 78%
    08:00 -1°C° 0,1 mm 6 m/S 742 mmHg 76%
    09:00 -1°C° 0,1 mm 7 m/S 743 mmHg 74%
    10:00 0°C° 0,3 mm 7 m/S 743 mmHg 74%
    11:00 0°C° 0,3 mm 7 m/S 744 mmHg 75%
    12:00 0°C° 0 mm 7 m/S 745 mmHg 77%
    13:00 0°C° 0,4 mm 7 m/S 745 mmHg 76%
    14:00 +1°C° 0,4 mm 8 m/S 746 mmHg 74%
    15:00 +1°C° 0,4 mm 8 m/S 746 mmHg 72%
    16:00 +2°C° 0,2 mm 7 m/S 747 mmHg 75%
    17:00 0°C° 0,2 mm 7 m/S 748 mmHg 77%
    18:00 +1°C° 0,2 mm 6 m/S 748 mmHg 79%
    19:00 +1°C° 0,1 mm 6 m/S 748 mmHg 80%
    20:00 +1°C° 0,1 mm 6 m/S 749 mmHg 81%
    21:00 +1°C° 0,1 mm 5 m/S 749 mmHg 81%
    22:00 +1°C° 0 mm 5 m/S 749 mmHg 81%
    23:00 +1°C° 0 mm 5 m/S 749 mmHg 81%

    Morgen, 18 Januar, Donnerstag

    Zeit Temperatur Niederschläge Wind Luftdruck Luftfeuchtigkeit
    00:00 +1°C° 0 mm 5 m/S 748 mmHg 82%
    01:00 +1°C° 0,4 mm 5 m/S 747 mmHg 83%
    02:00 +2°C° 0,4 mm 5 m/S 746 mmHg 84%
    03:00 +2°C° 0,4 mm 5 m/S 744 mmHg 86%
    04:00 +3°C° 1,2 mm 7 m/S 743 mmHg 85%
    05:00 +4°C° 1,2 mm 8 m/S 741 mmHg 84%
    06:00 +5°C° 1,2 mm 10 m/S 739 mmHg 83%
    07:00 +6°C° 0,3 mm 10 m/S 739 mmHg 81%
    08:00 +7°C° 0,3 mm 11 m/S 738 mmHg 79%
    09:00 +7°C° 0,3 mm 11 m/S 738 mmHg 77%
    10:00 +7°C° 0,1 mm 11 m/S 738 mmHg 73%
    11:00 +5°C° 0,1 mm 12 m/S 739 mmHg 70%
    12:00 +4°C° 0,1 mm 12 m/S 740 mmHg 67%
    13:00 +4°C° 0,1 mm 11 m/S 741 mmHg 68%
    14:00 +3°C° 0,1 mm 9 m/S 743 mmHg 69%
    15:00 +4°C° 0,1 mm 7 m/S 744 mmHg 70%
    16:00 +3°C° 0,2 mm 6 m/S 744 mmHg 74%
    17:00 +3°C° 0,2 mm 5 m/S 744 mmHg 78%
    18:00 +3°C° 0,2 mm 3 m/S 744 mmHg 81%
    19:00 +4°C° 0,8 mm 4 m/S 744 mmHg 82%
    20:00 +4°C° 0,8 mm 4 m/S 744 mmHg 83%
    21:00 +3°C° 0,8 mm 5 m/S 744 mmHg 83%
    22:00 +2°C° 0,4 mm 5 m/S 745 mmHg 83%
    23:00 +2°C° 0,4 mm 5 m/S 745 mmHg 83%

    übermorgen, 19 Januar, Freitag

    Zeit Temperatur Niederschläge Wind Luftdruck Luftfeuchtigkeit
    00:00 +2°C° 0,4 mm 5 m/S 746 mmHg 82%
    01:00 +2°C° 0,2 mm 5 m/S 746 mmHg 83%
    02:00 +1°C° 0,2 mm 5 m/S 747 mmHg 83%
    03:00 +1°C° 0,2 mm 5 m/S 747 mmHg 84%
    04:00 +1°C° 0,1 mm 5 m/S 748 mmHg 84%
    05:00 +1°C° 0,1 mm 5 m/S 748 mmHg 85%
    06:00 0°C° 0,1 mm 5 m/S 749 mmHg 85%
    07:00 0°C° 0 mm 5 m/S 749 mmHg 84%
    08:00 0°C° 0 mm 5 m/S 749 mmHg 84%
    09:00 0°C° 0 mm 5 m/S 750 mmHg 83%
    10:00 +1°C° 0 mm 5 m/S 750 mmHg 79%
    11:00 +2°C° 0 mm 5 m/S 750 mmHg 75%
    12:00 +3°C° 0 mm 5 m/S 750 mmHg 71%
    13:00 +3°C° 0 mm 4 m/S 750 mmHg 71%
    14:00 +3°C° 0 mm 4 m/S 750 mmHg 72%
    15:00 +3°C° 0 mm 3 m/S 749 mmHg 72%
    16:00 +3°C° 0,1 mm 3 m/S 749 mmHg 75%
    17:00 +2°C° 0,1 mm 3 m/S 749 mmHg 77%
    18:00 +2°C° 0,1 mm 3 m/S 749 mmHg 80%
    19:00 +1°C° 0,2 mm 4 m/S 749 mmHg 81%
    20:00 +1°C° 0,2 mm 4 m/S 749 mmHg 81%
    21:00 +1°C° 0,2 mm 4 m/S 749 mmHg 82%
    22:00 0°C° 0,1 mm 4 m/S 749 mmHg 82%
    23:00 0°C° 0,1 mm 4 m/S 749 mmHg 82%

    20 Januar, Samstag

    Zeit Temperatur Niederschläge Wind Luftdruck Luftfeuchtigkeit
    00:00 0°C° 0,1 mm 4 m/S 750 mmHg 82%
    01:00 -1°C° 0 mm 4 m/S 750 mmHg 82%
    02:00 -1°C° 0 mm 5 m/S 750 mmHg 83%
    03:00 -1°C° 0 mm 5 m/S 750 mmHg 83%
    04:00 -1°C° 0,1 mm 5 m/S 750 mmHg 82%
    05:00 -1°C° 0,1 mm 5 m/S 750 mmHg 81%
    06:00 -1°C° 0,1 mm 5 m/S 750 mmHg 81%
    07:00 -1°C° 0,1 mm 5 m/S 750 mmHg 81%
    08:00 -1°C° 0,1 mm 5 m/S 750 mmHg 81%
    09:00 -1°C° 0,1 mm 5 m/S 750 mmHg 81%
    10:00 0°C° 0 mm 5 m/S 750 mmHg 79%
    11:00 +1°C° 0 mm 4 m/S 750 mmHg 77%
    12:00 +1°C° 0 mm 4 m/S 750 mmHg 76%
    13:00 +1°C° 0 mm 4 m/S 750 mmHg 77%
    14:00 +2°C° 0 mm 3 m/S 750 mmHg 78%
    15:00 +2°C° 0 mm 3 m/S 750 mmHg 80%
    16:00 +1°C° 0 mm 3 m/S 750 mmHg 83%
    17:00 +1°C° 0 mm 2 m/S 751 mmHg 86%
    18:00 -1°C° 0 mm 2 m/S 752 mmHg 89%
    19:00 -1°C° 0 mm 2 m/S 752 mmHg 90%
    20:00 -1°C° 0 mm 3 m/S 753 mmHg 90%
    21:00 -1°C° 0 mm 3 m/S 753 mmHg 91%
    22:00 -1°C° 0 mm 3 m/S 754 mmHg 91%
    23:00 -1°C° 0 mm 3 m/S 754 mmHg 91%

    21 Januar, Sonntag

    Zeit Temperatur Niederschläge Wind Luftdruck Luftfeuchtigkeit
    00:00 -1°C° 0 mm 3 m/S 755 mmHg 91%
    01:00 -1°C° 0 mm 3 m/S 755 mmHg 91%
    02:00 -1°C° 0 mm 3 m/S 755 mmHg 91%
    03:00 -1°C° 0 mm 3 m/S 756 mmHg 91%
    04:00 -1°C° 0 mm 2 m/S 756 mmHg 91%
    05:00 -1°C° 0 mm 2 m/S 756 mmHg 90%
    06:00 -1°C° 0 mm 2 m/S 756 mmHg 90%
    07:00 +1°C° 0 mm 2 m/S 757 mmHg 87%
    08:00 +1°C° 0 mm 2 m/S 757 mmHg 85%
    09:00 +2°C° 0 mm 2 m/S 757 mmHg 83%
    10:00 +2°C° 0,1 mm 2 m/S 757 mmHg 81%
    11:00 +2°C° 0,1 mm 3 m/S 757 mmHg 79%
    12:00 +2°C° 0,1 mm 3 m/S 756 mmHg 77%
    13:00 +2°C° 0,9 mm 3 m/S 756 mmHg 80%
    14:00 +1°C° 0,9 mm 4 m/S 755 mmHg 83%
    15:00 +1°C° 0,9 mm 5 m/S 754 mmHg 86%
    16:00 +1°C° 2 mm 4 m/S 753 mmHg 88%
    17:00 +1°C° 2 mm 4 m/S 753 mmHg 91%
    18:00 +1°C° 2 mm 4 m/S 752 mmHg 94%
    19:00 +3°C° 1 mm 4 m/S 752 mmHg 95%
    20:00 +4°C° 1 mm 4 m/S 752 mmHg 96%
    21:00 +5°C° 1 mm 4 m/S 752 mmHg 97%
    22:00 +5°C° 0,6 mm 4 m/S 752 mmHg 97%
    23:00 +6°C° 0,6 mm 4 m/S 753 mmHg 97%

    22 Januar, Montag

    Zeit Temperatur Niederschläge Wind Luftdruck Luftfeuchtigkeit
    00:00 +7°C° 0,6 mm 4 m/S 753 mmHg 98%
    01:00 +7°C° 0,2 mm 4 m/S 753 mmHg 98%
    02:00 +7°C° 0,2 mm 4 m/S 753 mmHg 98%
    03:00 +7°C° 0,2 mm 4 m/S 754 mmHg 98%
    04:00 +8°C° 0,1 mm 3 m/S 754 mmHg 98%
    05:00 +8°C° 0,1 mm 3 m/S 755 mmHg 98%
    06:00 +7°C° 0,1 mm 3 m/S 755 mmHg 98%
    07:00 +8°C° 0,1 mm 2 m/S 755 mmHg 98%
    08:00 +8°C° 0,1 mm 2 m/S 755 mmHg 98%
    09:00 +8°C° 0,1 mm 2 m/S 756 mmHg 98%
    10:00 +8°C° 0,4 mm 2 m/S 755 mmHg 97%
    11:00 +8°C° 0,4 mm 3 m/S 755 mmHg 97%
    12:00 +9°C° 0,4 mm 3 m/S 755 mmHg 97%
    13:00 +9°C° 0,4 mm 3 m/S 755 mmHg 96%
    14:00 +10°C° 0,4 mm 4 m/S 755 mmHg 95%
    15:00 +10°C° 0,4 mm 4 m/S 755 mmHg 93%
    16:00 +10°C° 0,3 mm 5 m/S 755 mmHg 93%
    17:00 +10°C° 0,3 mm 5 m/S 755 mmHg 92%
    18:00 +10°C° 0,3 mm 5 m/S 755 mmHg 91%
    19:00 +10°C° 0,3 mm 6 m/S 755 mmHg 91%
    20:00 +10°C° 0,3 mm 6 m/S 755 mmHg 90%
    21:00 +10°C° 0,3 mm 6 m/S 755 mmHg 89%
    22:00 +10°C° 0,1 mm 6 m/S 755 mmHg 89%
    23:00 +10°C° 0,1 mm 6 m/S 755 mmHg 89%
    Mehr zeigen